Highgate, VT

4:15 AM EST on November 18, 2019 (GMT -0500)
Franklin County State

Weather History for KFSO - September, 2019

Change the Weather History Date:

Friday, September 13, 2019

  Actual Average (KPBG) Record (KPBG)
Temperature  
Mean Temperature 56 °F -  
Max Temperature 73 °F 69 °F 93 °F (1948)
Min Temperature 41 °F 50 °F 33 °F (1985)
Degree Days  
Heating Degree Days 8    
Growing Degree Days 6 (Base 50)    
Moisture  
Dew Point 45 °F    
Average Humidity 67    
Maximum Humidity 96    
Minimum Humidity 36    
Precipitation  
Precipitation 0.00 in - - ()
Sea Level Pressure  
Sea Level Pressure 30.40 in    
Wind  
Wind Speed 3 mph (SSE)    
Max Wind Speed 22 mph    
Max Gust Speed 31 mph    
Visibility 10 miles    
Events      
Averages and records for this station are not official NWS values.
T = Trace of Precipitation, MM = Missing Value Source: NWS Daily Summary

Daily Weather History Graph

Daily Weather History Graph

Search for Another Location

Airport or City:

Astronomy

Sep. 13, 2019 Rise Set
Actual Time 6:28 AM EDT 7:07 PM EDT
Civil Twilight 5:58 AM EDT 7:36 PM EDT
Nautical Twilight 5:23 AM EDT 8:11 PM EDT
Astronomical Twilight 4:47 AM EDT 8:48 PM EDT
Moon 7:22 PM EDT (9/13) 5:37 AM EDT (9/13)
Length of Visible Light 13h 38m
Length of Day
12h 39m
Full, 100% of the Moon is Illuminated
Sep 13
Full
Sep 14
Full
Sep 21
Last Quarter
Sep 28
New
Oct 5
First Quarter

Hourly Weather History & Observations

Time (EDT) Temp. Windchill Dew Point Humidity Pressure Visibility Wind Dir Wind Speed Gust Speed Precip Events Conditions
12:15 AM 46.6 °F - 45.1 °F 95% 30.38 in 10.0 mi Calm Calm - N/A   Clear
12:35 AM 46.6 °F - 45.5 °F 96% 30.39 in 10.0 mi Calm Calm - N/A   Clear
12:55 AM 46.6 °F - 45.3 °F 95% 30.40 in 10.0 mi Calm Calm - N/A   Clear
1:16 AM 46.2 °F - 45.0 °F 95% 30.40 in 10.0 mi Calm Calm - N/A   Clear
1:35 AM 45.1 °F - 43.9 °F 95% 30.41 in 10.0 mi Calm Calm - N/A   Clear
1:56 AM 44.6 °F - 43.2 °F 95% 30.41 in 10.0 mi Calm Calm - N/A   Clear
2:15 AM 44.2 °F - 43.0 °F 95% 30.41 in 10.0 mi Calm Calm - N/A   Clear
2:36 AM 44.1 °F - 43.0 °F 96% 30.41 in 10.0 mi Calm Calm - N/A   Clear
2:55 AM 44.8 °F - 43.5 °F 95% 30.41 in 10.0 mi Calm Calm - N/A   Clear
3:15 AM 44.6 °F - 43.2 °F 95% 30.42 in 10.0 mi Calm Calm - N/A   Clear
3:36 AM 44.2 °F - 43.0 °F 95% 30.43 in 10.0 mi Calm Calm - N/A   Clear
3:55 AM 44.6 °F - 43.2 °F 95% 30.43 in 10.0 mi Calm Calm - N/A   Clear
4:15 AM 44.2 °F - 43.0 °F 95% 30.43 in 10.0 mi Calm Calm - N/A   Clear
4:36 AM 42.8 °F - 41.4 °F 95% 30.44 in 10.0 mi Calm Calm - N/A   Clear
4:55 AM 43.2 °F - 41.9 °F 95% 30.44 in 10.0 mi Calm Calm - N/A   Clear
5:16 AM 42.3 °F - 41.0 °F 95% 30.44 in 10.0 mi Calm Calm - N/A   Clear
5:36 AM 42.8 °F - 41.7 °F 96% 30.44 in 10.0 mi Calm Calm - N/A   Clear
5:55 AM 41.7 °F - 40.6 °F 96% 30.45 in 10.0 mi Calm Calm - N/A   Clear
6:16 AM 41.5 °F 38.6 °F 40.3 °F 95% 30.45 in 10.0 mi East 4.6 mph - N/A   Clear
6:35 AM 42.1 °F - 41.0 °F 96% 30.45 in 10.0 mi Calm Calm - N/A   Clear
6:56 AM 42.3 °F - 41.0 °F 95% 30.46 in 10.0 mi Calm Calm - N/A   Clear
7:16 AM 42.4 °F - 41.2 °F 95% 30.46 in 10.0 mi Calm Calm - N/A   Clear
7:36 AM 43.9 °F 42.3 °F 42.8 °F 96% 30.48 in 10.0 mi SSE 3.5 mph - N/A   Clear
7:56 AM 45.1 °F 42.8 °F 43.9 °F 95% 30.48 in 10.0 mi East 4.6 mph - N/A   Clear
8:15 AM 46.8 °F - 45.5 °F 95% 30.49 in 10.0 mi East 3.5 mph - N/A   Clear
8:36 AM 49.1 °F - 46.4 °F 90% 30.49 in 10.0 mi East 4.6 mph - N/A   Clear
8:55 AM 52.2 °F - 45.9 °F 79% 30.49 in 10.0 mi East 8.1 mph - N/A   Clear
9:16 AM 54.0 °F - 46.0 °F 75% 30.49 in 10.0 mi SE 3.5 mph - N/A   Clear
9:35 AM 56.5 °F - 47.5 °F 72% 30.50 in 10.0 mi SSE 4.6 mph - N/A   Clear
9:55 AM 58.6 °F - 48.0 °F 68% 30.49 in 10.0 mi Calm Calm - N/A   Clear
10:15 AM 59.5 °F - 47.3 °F 64% 30.49 in 10.0 mi Calm Calm - N/A   Clear
10:36 AM 61.2 °F - 47.8 °F 62% 30.48 in 10.0 mi Calm Calm - N/A   Clear
10:55 AM 64.0 °F - 48.9 °F 58% 30.48 in 10.0 mi SE 4.6 mph - N/A   Clear
11:16 AM 65.8 °F - 48.6 °F 54% 30.48 in 10.0 mi SSE 3.5 mph - N/A   Clear
11:35 AM 66.6 °F - 46.9 °F 49% 30.47 in 10.0 mi SSE 4.6 mph - N/A   Clear
11:55 AM 67.1 °F - 46.9 °F 48% 30.47 in 10.0 mi SW 5.8 mph - N/A   Clear
12:15 PM 68.0 °F - 45.7 °F 45% 30.47 in 10.0 mi Calm Calm - N/A   Clear
12:35 PM 68.9 °F - 45.3 °F 43% 30.47 in 10.0 mi SSW 3.5 mph - N/A   Clear
1:15 PM 68.7 °F - 50.0 °F 51% 30.45 in 10.0 mi West 4.6 mph - N/A   Clear
1:35 PM 69.4 °F - 48.9 °F 48% 30.45 in 10.0 mi SW 5.8 mph - N/A   Clear
1:55 PM 69.1 °F - 48.9 °F 49% 30.44 in 10.0 mi SSW 5.8 mph - N/A   Clear
2:16 PM 68.9 °F - 48.6 °F 48% 30.43 in 10.0 mi South 4.6 mph - N/A   Clear
2:35 PM 71.1 °F - 49.8 °F 47% 30.42 in 10.0 mi Calm Calm - N/A   Clear
2:56 PM 71.1 °F - 50.9 °F 49% 30.41 in 10.0 mi WSW 3.5 mph - N/A   Clear
3:16 PM 70.9 °F - 51.3 °F 50% 30.39 in 10.0 mi SSW 3.5 mph - N/A   Clear
3:36 PM 70.9 °F - 48.6 °F 45% 30.39 in 10.0 mi South 5.8 mph - N/A   Clear
3:55 PM 70.3 °F - 50.5 °F 49% 30.38 in 10.0 mi SSW 5.8 mph - N/A   Clear
4:15 PM 71.2 °F - 49.6 °F 46% 30.38 in 10.0 mi SSW 3.5 mph - N/A   Clear
4:36 PM 72.9 °F - 44.1 °F 36% 30.37 in 10.0 mi SSE 11.5 mph 17.3 mph N/A   Clear
4:55 PM 72.5 °F - 44.4 °F 36% 30.36 in 10.0 mi SSE 13.8 mph - N/A   Clear
5:16 PM 72.0 °F - 45.7 °F 39% 30.36 in 10.0 mi SSE 9.2 mph - N/A   Clear
5:36 PM 71.1 °F - 44.1 °F 38% 30.35 in 10.0 mi South 12.7 mph - N/A   Clear
5:55 PM 70.5 °F - 45.5 °F 41% 30.35 in 10.0 mi SSE 10.4 mph - N/A   Clear
6:16 PM 69.1 °F - 46.0 °F 44% 30.35 in 10.0 mi SSE 8.1 mph - N/A   Clear
6:35 PM 67.3 °F - 45.3 °F 45% 30.34 in 10.0 mi South 6.9 mph - N/A   Clear
6:55 PM 64.4 °F - 46.2 °F 52% 30.33 in 10.0 mi SSE 8.1 mph - N/A   Clear
7:16 PM 64.0 °F - 45.7 °F 51% 30.33 in 10.0 mi SE 8.1 mph - N/A   Clear
7:35 PM 63.7 °F - 45.0 °F 51% 30.31 in 10.0 mi SE 10.4 mph - N/A   Clear
7:56 PM 63.5 °F - 44.8 °F 51% 30.30 in 10.0 mi SE 9.2 mph - N/A   Clear
8:15 PM 62.6 °F - 45.0 °F 52% 30.30 in 10.0 mi SE 9.2 mph - N/A   Clear
8:56 PM 63.3 °F - 44.8 °F 51% 30.29 in 10.0 mi SSE 12.7 mph 19.6 mph N/A   Clear
9:15 PM 62.8 °F - 44.8 °F 52% 30.29 in 10.0 mi SSE 12.7 mph 20.7 mph N/A   Clear
9:36 PM 63.3 °F - 44.8 °F 51% 30.29 in 10.0 mi SSE 11.5 mph 18.4 mph N/A   Clear
9:55 PM 62.8 °F - 45.5 °F 53% 30.28 in 10.0 mi SSE 12.7 mph 19.6 mph N/A   Clear
10:15 PM 63.7 °F - 45.5 °F 52% 30.27 in 10.0 mi SSE 19.6 mph 25.3 mph N/A   Clear
10:35 PM 63.7 °F - 45.5 °F 52% 30.25 in 10.0 mi SSE 17.3 mph 25.3 mph N/A   Clear
10:56 PM 64.4 °F - 45.7 °F 51% 30.25 in 10.0 mi SSE 15.0 mph 25.3 mph N/A   Clear
11:16 PM 64.4 °F - 45.5 °F 50% 30.24 in 10.0 mi SSE 16.1 mph 25.3 mph N/A   Clear
11:35 PM 64.4 °F - 45.5 °F 50% 30.22 in 10.0 mi South 21.9 mph 31.1 mph N/A   Clear
11:56 PM 64.4 °F - 46.0 °F 51% 30.22 in 10.0 mi South 18.4 mph 25.3 mph N/A   Clear